Flag Weather past 2 weeks in Port Angeles, Washington, U.S.A.

Now
35 °F

Light snow. Overcast.


Feels Like: 28 °F
Forecast: 22 / 36 °F
Wind: 9 mph from West

Location: William R. Fairchild International Airport

Current Time: Nov 29, 2014 at 1:49:57 AM

Latest Report: Nov 29, 2014 at 12:53 AM


Visibility: 3 mi

Pressure: 29.54 "Hg

Humidity: 78%

Dew point: 29 °F

Location of Port AngelesLocation

Historic Weather in Port Angeles — Graph

°F

Port Angeles temperature yesterday

Maximum temperature yesterday: 52 °F (at 12:53 AM)
Minimum temperature yesterday: 34 °F (at 10:53 PM)
Average temperature yesterday: 43 °F

Past Weeks' High & Low Weather Summary

 TemperatureHumidityPressure
High58 °F (Nov 27, 10:53 AM)97% (Nov 19, 2:53 AM)30.54 "Hg (Nov 19, 2:53 AM)
Low25 °F (Nov 15, 4:53 AM)29% (Nov 14, 2:53 PM)29.24 "Hg (Nov 21, 3:53 PM)
Average42 °F80%30.02 "Hg
* Reported Nov 14 12:53 AM — Nov 29 12:53 AM, Port Angeles, Weather by CustomWeather, © 2014

Note: Actual official high and low records may vary slightly from our data, if they occured in-between our weather recording intervals... More about our weather records

Advertising

Port Angeles weather history for previous 24 hours

 ConditionsComfort  
Time TempWeatherWind HumidityBarometerVisibility
12:53 AM
Nov 29
35 °FLight snow. Overcast.9 mph78%29.54 "Hg3 mi
11:53 PM
Nov 28
35 °FMostly cloudy.5 mph82%29.53 "Hg10 mi
10:53 PM34 °FLight snow. Fog.7 mph92%29.52 "Hg4 mi
9:53 PM36 °FLight snow. Overcast.12 mph82%29.52 "Hg5 mi
8:53 PM40 °FOvercast.13 mph63%29.50 "Hg10 mi
7:53 PM41 °FOvercast.13 mph58%29.49 "Hg10 mi
6:53 PM41 °FOvercast.17 mph60%29.48 "Hg10 mi
5:53 PM42 °FOvercast.18 mph57%29.47 "Hg10 mi
4:53 PM42 °FOvercast.13 mph68%29.47 "Hg10 mi
3:53 PM43 °FOvercast.8 mph71%29.47 "Hg10 mi
2:53 PM45 °FScattered clouds.13 mph63%29.47 "Hg10 mi
1:53 PM45 °FPartly sunny.15 mph68%29.47 "Hg10 mi
12:53 PM44 °FPartly sunny.9 mph82%29.49 "Hg10 mi
11:53 AM43 °FMostly cloudy.8 mph86%29.50 "Hg10 mi
10:53 AM43 °FRain. Overcast.8 mph82%29.53 "Hg4 mi
9:53 AM43 °FRain. Fog.10 mph86%29.54 "Hg5 mi
8:53 AM44 °FRain. Overcast.10 mph85%29.54 "Hg7 mi
7:53 AM44 °FLight rain. More clouds than sun.9 mph89%29.54 "Hg10 mi
6:53 AM45 °FRain. Mostly cloudy.13 mph86%29.55 "Hg9 mi
5:53 AM46 °FRain. Overcast.14 mph86%29.55 "Hg9 mi
4:53 AM46 °FRain. Fog.15 mph93%29.56 "Hg6 mi
3:53 AM47 °FLight rain. Low clouds.14 mph93%29.57 "Hg10 mi
2:53 AM48 °FMostly cloudy.14 mph93%29.57 "Hg10 mi
1:53 AM52 °FLight rain. Fog.8 mph93%29.56 "Hg5 mi
Weather by CustomWeather, © 2014

See weather overviewHow to use our weather pages